P/2018 H2 ( PanSTARRS )

Japanese version
Home page
Updated on May 21, 2018

---------------------------------------------------------------------

* Profile

Discovery Date April 16, 2018
Magnitude 19.9 mag
Discoverer Pan-STARRS 1 telescope (Haleakala)

* Pictures

* Orbital Elements

Epoch 2018 Feb. 11.0 TT = JDT 2458160.5
T 2018 Jan. 23.49168 TT                                 MPCW
q   2.0271056            (2000.0)            P               Q
n   0.10662340     Peri.  120.24403     -0.98182358     +0.14735964
a   4.4045447      Node    68.45533     -0.18537694     -0.87975247
e   0.5397695      Incl.    7.38866     +0.04071659     -0.45201851
P   9.24
From 121 observations 2017 Nov. 17-2018 Apr. 25, mean residual 0".4.

* Magnitudes Graph

        m1 = 14.5 + 5 log d + 10.0 log r

---------------------------------------------------------------------

The orbital elements are published on M.P.E.C. 2018-H105.
The magnitudes graphs are made with Comet for Windows.

---------------------------------------------------------------------

Copyright(C) Seiichi Yoshida (comet@aerith.net). All rights reserved.